Temp
55 53 52 52 52 52 51 52 52 52 50 50 51 51 50 49 50 51 50 50 49 50
53 52 52 53 52 50 50 52 52 51 49 50 50 50 49 48 49 52 51 51 52 51
53 53 52 50 50 50 49 49 49 50 50 50 50 49 48 47 49 50 52 53 51 51
52 52 50 49 49 49 48 49 49 49 50 50 49 48 47 47 48 50 50 50 51 51
51 50 48 49 50 49 48 48 48 49 49 49 49 48 47 48 49 50 52 50 51 51
50 49 49 49 49 49 48 48 48 48 48 48 49 48 48 49 50 50 49 49 50 51
50 50 49 49 49 48 48 47 47 48 48 48 49 49 49 49 49 49 51 50 51 52
50 50 50 49 48 48 47 47 48 48 48 48 49 53 50 51 49 48 47 49 51 53
51 50 50 49 48 47 47 46 47 48 48 47 49 50 50 51 46 46 46 49 53 53
51 50 50 49 48 47 46 45 45 46 47 47 47 49 49 50 48 46 46 48 51 53
51 50 50 48 47 46 45 45 45 46 47 46 48 49 48 49 49 50 50 50 51 50
52 50 50 48 47 47 44 44 45 46 47 46 46 48 47 47 47 54 53 52 52 51
52 50 49 49 47 46 45 45 46 46 47 48 45 47 46 46 50 48 48 48 49 51
51 51 50 48 46 46 47 45 45 45 45 44 44 46 45 44 49 49 48 47 53 54
MSLP
1017.81 1018.16 1018.32 1018.23 1018.16 1017.82 1017.51 1017.04 1016.62 1016.43 1016.29 1016.18 1015.88 1015.49 1015.17 1014.92 1014.65 1014.24 1014.16 1014.20 1014.14 1014.08
1018.20 1018.21 1018.25 1018.10 1017.85 1017.65 1017.36 1016.98 1016.70 1016.43 1016.16 1015.89 1015.64 1015.35 1015.01 1014.66 1014.18 1013.98 1013.73 1013.60 1013.48 1013.72
1018.13 1018.09 1018.09 1017.92 1017.74 1017.49 1017.19 1016.97 1016.65 1016.25 1015.91 1015.59 1015.27 1015.03 1014.76 1014.29 1013.80 1013.51 1013.15 1013.03 1013.03 1012.97
1017.95 1017.99 1018.00 1017.90 1017.54 1017.35 1017.15 1016.72 1016.44 1016.14 1015.90 1015.61 1015.17 1014.63 1014.38 1013.83 1013.36 1013.20 1012.85 1012.61 1012.65 1012.46
1017.88 1017.91 1017.89 1017.59 1017.24 1017.15 1016.86 1016.63 1016.38 1016.09 1015.70 1015.30 1014.88 1014.28 1014.02 1013.49 1013.07 1012.86 1012.48 1012.34 1012.15 1011.93
1017.69 1017.62 1017.53 1017.30 1017.13 1016.97 1016.89 1016.62 1016.19 1015.82 1015.42 1015.04 1014.51 1013.93 1013.44 1013.32 1012.90 1012.53 1012.26 1012.10 1011.88 1011.52
1017.45 1017.29 1017.25 1017.14 1017.09 1017.00 1016.85 1016.55 1016.02 1015.45 1015.15 1014.65 1014.08 1013.53 1012.77 1012.88 1012.77 1012.50 1012.05 1011.66 1011.24 1010.84
1016.96 1016.90 1016.96 1017.03 1016.98 1016.86 1016.66 1016.26 1015.76 1015.26 1014.79 1014.40 1013.90 1013.25 1012.92 1012.55 1012.19 1011.90 1011.56 1011.08 1010.63 1010.07
1016.59 1016.69 1016.73 1016.81 1016.76 1016.58 1016.23 1015.91 1015.49 1014.97 1014.66 1014.24 1013.62 1013.06 1012.62 1012.39 1012.16 1011.73 1011.35 1010.74 1010.17 1009.71
1016.31 1016.54 1016.51 1016.46 1016.44 1016.22 1015.93 1015.61 1015.28 1014.81 1014.35 1014.00 1013.39 1012.71 1012.33 1012.02 1011.73 1011.43 1011.00 1010.48 1010.25 1009.90
1015.92 1016.13 1016.11 1016.16 1016.08 1015.75 1015.50 1015.30 1015.00 1014.49 1014.04 1013.63 1013.06 1012.52 1012.01 1011.55 1011.29 1010.87 1010.45 1010.19 1010.07 1010.07
1015.31 1015.53 1015.66 1015.71 1015.52 1015.16 1015.09 1014.82 1014.48 1014.03 1013.74 1013.34 1012.73 1012.24 1011.91 1011.59 1011.04 1010.38 1010.16 1009.98 1010.10 1010.23
1014.49 1014.81 1014.96 1014.95 1014.97 1014.64 1014.41 1014.29 1013.98 1013.57 1013.27 1012.98 1012.61 1011.98 1011.70 1011.52 1011.10 1010.52 1010.45 1010.41 1010.34 1010.22
1013.88 1013.95 1013.93 1014.18 1014.22 1014.12 1013.97 1013.85 1013.66 1013.40 1013.00 1012.75 1012.37 1011.96 1011.62 1011.41 1011.18 1010.84 1010.82 1010.62 1010.42 1010.30
Wind_Speed
6 3 3 3 3 3 3 4 5 6 6 6 7 6 6 4 5 5 5 7 5 4
5 4 3 5 4 3 5 4 6 7 6 7 7 7 7 5 6 5 5 6 5 4
5 4 5 4 5 6 6 5 7 7 8 8 8 7 7 6 7 5 5 5 5 5
4 5 4 5 6 5 5 7 7 7 9 10 9 7 6 7 7 7 6 5 5 7
5 4 5 6 5 5 7 7 7 7 8 10 10 8 7 7 6 7 5 6 6 6
5 5 6 6 5 6 6 7 7 6 7 9 9 8 5 5 7 5 5 6 7 8
5 6 6 5 5 6 6 7 7 6 7 7 8 7 2 3 6 6 6 7 8 8
6 4 4 5 6 7 7 7 7 6 6 6 6 4 5 5 5 6 6 7 7 9
4 6 6 6 7 7 7 7 6 6 6 7 4 9 10 9 6 6 5 7 7 5
6 6 7 6 6 7 8 5 7 7 6 7 7 10 10 12 5 6 6 6 4 2
7 7 7 6 8 7 5 7 6 7 7 6 7 11 10 10 6 5 6 5 4 2
7 7 7 7 8 7 5 5 6 5 7 6 7 10 11 9 5 3 4 4 3 2
8 8 8 8 7 5 4 6 5 6 5 7 7 9 9 8 4 2 3 4 2 2
7 9 9 6 4 6 7 5 6 6 5 6 6 6 9 7 3 1 1 0 0 1
Wind_Direction
92 126 173 209 231 288 262 278 301 315 315 293 296 295 286 266 263 260 251 250 227 215
149 169 219 257 268 279 290 291 316 307 295 299 296 289 293 274 261 245 251 240 227 209
190 217 239 257 277 285 304 316 303 308 311 304 300 291 287 283 275 263 257 257 238 223
232 254 277 275 281 301 304 308 312 311 312 305 295 283 275 273 268 266 268 270 255 252
244 262 270 270 289 310 313 308 303 302 301 297 292 284 281 289 284 281 278 267 260 261
271 284 284 269 298 309 304 299 299 299 296 297 290 283 298 286 304 295 295 278 271 262
274 273 247 263 287 292 294 289 293 304 290 290 288 281 232 294 301 301 289 283 275 270
267 245 239 265 275 282 282 282 291 296 306 298 301 294 323 303 282 284 292 286 281 271
250 215 241 260 265 273 281 293 294 313 304 297 283 295 298 312 302 297 284 295 301 315
205 221 247 257 264 268 276 286 291 295 300 298 293 287 295 304 291 284 279 273 288 303
201 226 250 256 256 263 263 271 282 284 287 293 291 290 298 310 290 281 280 271 277 209
208 223 236 249 258 261 250 275 271 266 291 299 296 296 313 336 297 339 18 60 92 127
215 216 229 237 256 260 234 261 282 285 277 297 298 303 321 336 298 69 56 37 21 209
229 220 223 241 234 254 270 279 286 283 282 291 282 308 346 338 290 6 28 76 76 251